Location: Newark
(48.6461°N, 4.3644°W)
Time: 04:12:57
(UTC+00:00)

Transit 4A - Pass Details

Date: 30 January 2020
Orbit: 872 x 973 km, 66.8° (Epoch: 18 February)

Event Time Altitude Azimuth Distance (km) Brightness Sun altitude
Rises 06:49:13 0° 233° (SW) 3,532 10.6 -10.3°
Reaches altitude 10° 06:51:50 10° 238° (WSW) 2,579 9.8 -9.9°
Maximum altitude 06:57:36 49° 313° (NW) 1,133 8.0 -8.9°
Drops below altitude 10° 07:03:18 10° 29° (NNE) 2,542 10.3 -8.0°
Sets 07:05:53 0° 35° (NE) 3,477 11.1 -7.6°
